Wind_Speed
71 70 69 68 68 67 66 65 64 63 62 61 60 59 59 58 57 56 55 54 53 53 52 51 51 51 51 51 51 52 52 53 53 53 53 53 53 53 53 53 52 51 49 48 48 48 48 47 45 42 39 37 35 33 31 29 26 23 20 19 19 22 26 31 36 40 43 46 49 51 52 53 54 55 57 58 59 60 61 62 63 64 64 65 66 67
69 68 67 67 66 66 65 64 63 62 61 60 59 58 58 57 56 56 55 54 53 53 52 51 51 51 51 51 51 52 52 52 52 52 53 53 52 52 52 52 51 51 49 47 46 46 46 45 44 41 38 36 33 32 30 28 26 23 21 20 20 21 25 29 33 37 41 44 47 49 52 53 55 56 58 59 60 61 62 63 64 65 66 66 67 68
67 67 66 65 64 64 63 63 62 61 60 59 58 58 57 56 56 55 54 54 53 53 52 52 52 51 51 52 52 52 52 52 52 52 52 52 51 51 51 51 50 50 49 47 45 44 44 44 43 42 39 36 33 31 29 27 26 24 22 20 20 21 23 26 30 34 38 41 45 47 50 53 55 57 58 60 61 62 63 64 65 66 67 67 68 69
66 65 64 64 63 62 62 61 60 60 59 58 57 57 56 55 55 54 54 53 53 52 52 52 52 52 52 52 51 51 51 51 51 51 51 50 50 50 49 49 49 48 48 47 45 44 43 42 42 41 40 37 34 31 29 27 25 24 23 22 21 21 23 25 28 31 35 38 42 45 48 51 54 56 58 59 61 62 63 64 65 66 67 68 68 69
64 64 63 62 62 61 61 60 59 59 58 57 56 55 55 54 54 53 53 53 52 52 52 51 51 51 51 51 51 51 51 50 50 50 50 49 49 48 48 47 47 47 47 46 45 44 42 41 41 41 40 39 36 34 31 28 27 25 24 23 23 23 23 25 26 29 32 35 39 42 46 49 52 55 57 59 60 62 63 64 65 66 67 68 68 69
63 63 62 61 61 60 60 59 58 58 57 56 55 54 54 53 53 52 52 52 51 51 51 51 50 50 50 50 50 50 50 49 49 49 49 48 48 47 47 46 46 46 45 45 45 44 43 41 40 40 40 39 38 36 34 31 29 27 26 26 25 25 26 26 27 28 30 33 36 39 42 46 49 52 55 57 59 61 63 64 65 66 67 68 68 69
62 62 61 60 60 59 58 58 57 57 56 55 55 54 53 52 52 51 51 50 50 50 50 50 49 49 49 49 49 49 49 49 48 48 48 48 47 47 46 46 45 45 45 44 44 44 43 42 41 40 39 39 39 38 36 35 33 31 29 28 28 27 28 28 29 30 30 32 34 36 39 42 45 49 52 55 57 59 61 63 65 66 67 68 68 69
61 61 60 59 59 58 58 57 56 56 55 55 54 53 52 52 51 50 50 50 49 49 49 49 49 48 48 48 48 48 48 48 48 48 48 48 47 47 47 46 45 45 45 44 44 44 43 43 42 41 40 39 39 39 38 37 36 34 33 31 31 30 30 30 31 32 32 33 34 36 37 40 42 45 48 51 53 56 59 61 62 64 65 67 68 68
60 60 59 58 58 57 57 56 56 55 54 54 53 53 52 51 51 50 50 49 49 48 48 48 48 48 48 48 48 48 48 48 48 48 48 48 48 48 47 47 46 46 45 45 44 44 43 43 43 42 41 40 40 39 39 39 38 37 36 35 34 33 33 33 33 34 35 35 36 37 38 39 41 43 45 47 50 52 55 57 60 62 63 65 66 67
59 59 58 58 57 56 56 56 55 54 54 53 53 52 52 51 51 50 50 49 48 48 48 48 48 48 48 48 47 47 47 48 48 48 48 48 48 48 48 48 48 47 47 46 45 45 44 44 43 43 42 42 41 40 40 40 39 39 39 38 37 37 36 36 36 36 37 38 39 39 40 41 42 43 44 46 47 50 52 54 56 59 61 62 64 65
59 58 58 57 57 56 55 55 54 54 53 53 52 52 51 51 50 50 50 49 49 48 48 48 48 48 48 48 48 48 48 48 48 48 48 48 48 48 49 49 49 48 48 48 47 46 46 45 44 44 43 43 43 42 42 41 41 41 40 40 40 40 39 39 39 39 39 40 41 42 42 43 44 45 45 46 47 49 50 52 54 56 58 60 62 63
58 58 57 57 56 56 55 54 54 53 53 52 52 52 51 51 50 50 50 50 49 49 49 48 48 48 48 48 48 49 49 49 49 49 49 49 49 49 49 49 50 50 49 49 49 48 48 47 46 45 45 44 44 44 44 43 43 43 42 42 42 42 42 42 42 42 42 42 43 44 45 45 46 47 48 48 49 50 51 52 53 55 57 58 60 62
58 57 57 56 56 55 55 54 54 53 53 52 52 52 51 51 50 50 50 50 49 49 49 49 49 49 49 49 49 49 49 50 50 50 50 50 50 50 50 51 51 51 51 51 50 50 50 49 48 47 46 46 46 46 45 45 45 45 45 45 45 44 45 45 45 45 45 45 45 46 47 47 48 49 50 51 51 52 53 54 55 56 57 58 60 61
58 57 57 56 56 56 55 55 54 53 53 52 52 52 51 51 51 50 50 50 50 50 50 50 50 50 50 50 50 50 50 51 51 51 51 51 51 51 51 52 52 52 52 52 52 52 51 51 51 50 49 48 48 47 47 47 47 47 47 47 47 47 47 47 47 48 48 48 48 48 49 49 50 51 52 52 53 54 55 56 57 58 58 59 61 62
57 57 57 56 56 56 55 55 54 54 53 53 52 52 52 51 51 51 51 51 51 51 50 51 51 51 51 51 51 51 52 52 52 52 52 52 52 52 52 53 53 53 53 53 53 53 53 53 53 52 52 51 50 49 49 49 48 49 49 49 49 50 50 50 50 50 51 51 51 51 51 52 52 53 53 54 55 56 57 58 59 60 60 61 62 63
57 57 57 56 56 56 55 55 55 54 54 53 53 52 52 52 52 52 51 51 51 51 51 51 52 52 52 52 52 52 53 53 54 54 54 54 53 53 53 54 54 54 54 54 54 54 54 54 54 54 54 53 53 52 51 51 50 50 50 51 51 52 52 52 53 53 53 53 54 54 54 54 55 55 56 56 57 58 59 60 61 61 62 63 64 65
57 57 57 56 56 56 56 55 55 55 54 54 53 53 53 52 52 52 52 52 52 52 52 53 53 53 54 54 54 54 54 55 55 55 55 55 55 55 54 55 55 56 56 55 55 55 56 56 56 55 55 55 54 54 54 53 53 53 52 53 53 53 54 54 55 55 56 56 56 57 57 57 58 58 58 59 59 60 61 61 62 63 64 65 66 67
57 57 57 56 57 56 56 56 56 55 55 54 54 54 53 53 53 53 53 53 53 54 54 54 54 54 55 55 55 55 55 56 57 57 57 57 56 56 56 56 57 57 57 57 57 57 57 57 57 57 56 56 56 55 55 55 55 55 55 55 55 55 56 56 57 57 58 58 59 59 60 60 60 61 61 62 62 63 63 64 64 65 66 67 68 68
57 57 57 57 57 57 57 56 56 56 56 55 55 55 55 54 54 54 54 54 54 55 55 55 55 55 56 56 57 57 57 57 58 58 59 58 58 58 57 58 58 58 58 58 58 58 58 58 58 58 58 57 57 57 56 56 56 56 56 56 57 57 57 58 58 59 59 60 61 61 62 62 63 63 64 64 65 65 66 66 67 67 68 69 70 70
57 57 57 57 57 57 57 57 57 56 56 56 56 56 56 56 55 55 55 56 56 56 56 56 56 56 57 57 58 58 58 58 59 60 60 60 60 59 59 59 60 60 60 60 59 59 59 59 59 59 59 59 58 58 58 58 57 57 58 58 58 58 59 59 60 60 61 61 62 63 63 64 65 65 66 67 67 68 68 69 69 70 70 71 72 72
57 57 57 57 57 57 57 57 57 57 57 57 57 57 57 57 57 57 57 57 57 57 57 57 57 58 58 58 59 59 59 60 60 61 62 62 62 61 61 61 61 62 62 61 61 61 60 61 61 61 60 60 60 59 59 59 59 59 59 59 59 59 60 60 61 61 62 63 63 64 65 65 66 67 68 69 69 70 71 71 72 72 73 73 74 75
58 58 57 57 57 57 57 58 58 58 58 58 58 58 58 58 58 58 58 58 58 58 58 58 59 59 59 59 60 60 60 61 62 62 63 64 63 63 62 62 63 63 63 63 62 62 62 62 62 62 62 61 61 61 60 60 60 60 60 60 60 60 60 61 61 62 62 63 64 65 66 66 67 68 69 70 71 71 72 73 74 74 75 76 76 77
58 58 58 58 57 57 58 58 58 58 58 58 58 58 59 59 59 59 59 59 59 60 60 60 60 60 60 60 61 61 62 62 63 64 64 65 65 65 64 64 65 65 65 64 64 64 64 64 64 64 63 63 63 62 62 62 61 61 61 61 61 61 61 61 61 62 63 63 64 65 66 67 68 69 70 70 71 72 73 74 75 76 76 77 78 78
59 59 59 58 58 58 58 58 58 59 59 59 59 59 59 59 60 60 60 60 60 60 61 61 61 61 61 61 62 62 63 63 64 65 66 66 67 67 66 66 66 67 66 66 65 65 65 65 65 65 65 65 64 64 64 63 63 62 62 62 61 61 61 61 62 62 63 63 64 65 66 67 68 69 70 71 72 73 74 74 75 76 77 78 79 79
60 60 59 59 59 59 59 59 59 59 59 59 60 60 60 60 60 60 61 61 61 61 61 62 62 62 62 62 63 63 64 64 65 66 67 68 68 68 68 68 68 68 68 67 67 67 67 67 67 67 67 66 66 66 65 65 64 63 63 62 62 62 62 62 62 62 63 63 64 64 65 66 67 68 69 70 71 73 73 74 75 76 77 78 79 80
62 61 61 60 60 59 59 59 59 60 60 60 60 60 61 61 61 61 61 61 62 62 62 63 63 63 63 63 64 64 65 65 66 66 67 68 69 70 70 69 69 69 69 69 68 68 68 68 69 68 68 68 67 67 66 66 65 64 64 63 62 62 62 62 62 62 62 63 64 64 65 66 66 67 68 69 71 72 73 74 75 76 77 77 78 79
63 62 62 61 61 60 60 60 60 60 61 61 61 61 61 61 62 62 62 62 62 62 63 63 64 64 64 65 65 65 66 66 67 67 68 69 70 71 71 70 70 70 70 70 70 69 69 70 70 70 70 69 69 68 67 66 66 65 64 63 63 62 62 62 62 62 62 63 63 64 64 65 66 66 67 68 69 70 71 72 73 74 75 76 77 78
64 63 63 62 62 61 61 61 61 61 61 61 61 62 62 62 62 63 63 63 63 63 63 64 64 65 65 66 66 67 67 68 68 68 69 70 71 71 71 71 71 71 71 71 71 71 70 70 71 71 70 70 69 69 68 67 66 65 64 63 63 62 62 62 62 62 62 62 62 63 63 64 65 65 66 67 68 68 69 70 71 72 73 74 75 76
65 64 63 63 62 62 62 62 62 62 62 62 62 62 63 63 63 63 64 63 63 64 64 65 65 65 66 67 67 68 68 69 69 69 70 71 72 72 72 72 72 72 72 72 72 72 72 71 71 71 71 71 70 69 68 67 66 65 64 63 63 62 62 61 61 61 61 61 62 62 62 63 63 64 65 65 66 67 68 68 69 70 71 72 73 74
65 65 64 64 63 63 62 62 63 62 63 63 63 63 63 63 64 64 64 64 64 64 65 65 66 66 67 68 69 69 70 70 70 70 71 72 73 73 73 73 73 73 73 73 74 74 73 72 72 71 71 71 70 69 68 67 66 65 64 63 62 62 61 61 61 60 60 61 61 61 61 62 62 63 64 64 65 65 66 67 68 68 69 70 71 72
66 66 65 65 64 64 63 63 63 63 63 63 64 64 64 64 64 64 64 64 65 65 65 66 66 67 68 69 70 71 71 72 71 72 72 73 74 74 74 74 74 74 73 74 75 75 75 74 73 71 71 70 70 69 67 66 65 64 63 63 62 61 60 60 60 60 59 59 59 60 60 61 61 62 62 63 63 64 65 66 66 67 68 69 70 71
67 66 66 66 65 65 64 64 64 64 64 64 64 65 65 65 65 65 65 65 65 65 66 67 67 68 69 69 70 71 72 73 73 73 73 74 74 75 74 75 75 75 74 74 75 76 76 76 74 72 71 70 69 67 66 65 64 63 63 62 61 60 60 59 59 59 58 58 58 58 59 59 60 60 61 62 62 63 64 64 65 66 67 68 69 70
68 67 66 66 66 65 65 65 65 65 65 65 65 65 65 65 65 65 65 65 66 66 67 67 68 69 70 70 71 72 73 73 74 74 74 75 75 75 75 75 76 76 76 76 75 76 76 76 75 73 71 69 67 66 65 64 63 62 62 61 60 60 59 58 58 58 57 57 57 57 58 58 59 59 60 61 61 62 63 64 64 65 66 67 68 69
68 67 66 66 66 66 66 66 66 66 66 66 66 66 66 66 66 66 66 66 66 67 67 68 69 70 71 72 72 73 74 74 74 75 75 75 76 76 76 76 76 76 77 77 76 76 76 75 74 72 70 68 66 64 63 62 61 60 60 60 59 59 58 58 57 57 57 57 57 57 57 58 58 59 60 60 61 62 62 63 64 64 65 66 67 68
68 67 66 66 66 66 66 66 67 67 67 67 67 67 67 67 67 67 67 67 67 68 68 69 70 71 71 72 73 74 75 75 75 75 75 76 76 76 77 77 77 77 77 77 77 76 75 74 73 71 69 67 65 63 61 60 59 58 58 58 58 58 57 57 57 57 57 56 57 57 57 58 58 59 60 60 61 61 62 62 63 63 64 64 65 66
68 67 66 66 66 66 66 66 67 67 68 68 68 68 67 67 67 68 68 68 69 69 70 70 71 71 72 73 74 75 75 76 76 76 76 76 77 77 77 77 77 77 77 77 76 75 74 73 71 69 67 66 64 62 60 58 57 57 56 56 56 56 56 56 56 56 57 57 57 57 58 58 59 59 59 60 60 60 61 61 61 61 62 62 63 63
68 67 66 66 66 66 66 67 67 68 68 68 68 68 68 68 68 68 69 69 69 70 71 71 72 72 73 74 74 75 76 76 76 77 77 77 77 77 77 78 77 77 77 76 75 74 72 71 69 67 66 64 63 61 60 58 56 55 55 54 54 55 55 56 56 57 57 57 58 58 58 58 59 59 59 59 59 59 59 59 58 59 59 59 60 61
68 67 66 66 66 66 66 67 67 68 68 68 68 68 68 69 69 69 70 70 71 71 72 72 73 73 74 75 75 76 76 77 77 77 77 77 77 77 77 78 77 76 75 74 73 72 70 69 67 66 64 63 61 60 59 57 56 55 54 53 53 54 54 55 56 56 57 58 58 58 58 58 58 58 57 57 57 56 56 56 56 56 57 57 58 58
68 67 66 66 66 66 67 67 68 68 68 68 69 69 69 69 70 70 70 71 71 72 73 73 74 74 75 76 76 76 77 77 77 77 77 77 77 77 77 77 76 75 74 72 71 69 68 66 65 64 63 62 61 59 58 56 55 55 54 53 53 53 53 54 55 56 56 57 57 57 57 57 56 56 56 55 55 54 54 54 54 54 55 55 56 56
67 66 66 66 66 66 67 67 68 68 68 69 69 69 69 70 70 71 71 72 72 73 73 74 75 75 76 76 77 77 77 77 78 77 77 77 77 77 76 76 75 74 72 70 68 66 65 64 63 62 61 61 60 59 58 56 55 54 54 54 54 53 53 53 54 55 55 55 56 56 55 55 55 54 54 53 53 53 53 53 53 53 53 53 54 54
66 66 66 66 66 67 67 68 68 68 69 69 69 70 70 71 71 72 72 73 73 74 74 75 75 76 76 77 77 77 78 78 78 78 77 77 77 76 75 74 73 71 70 68 66 64 63 62 61 61 60 59 59 58 57 56 55 54 54 54 54 54 53 53 53 53 53 53 54 53 53 53 53 52 52 52 51 51 51 51 52 52 52 52 52 52
66 66 66 66 67 67 68 68 68 69 69 69 70 70 71 71 72 72 73 74 74 75 75 76 76 77 77 78 78 78 78 78 78 78 77 77 76 75 74 72 71 69 67 65 64 62 61 60 60 60 59 59 58 58 57 56 55 54 54 54 54 54 53 52 52 51 51 51 51 51 51 51 51 51 50 50 50 50 50 50 50 50 50 50 50 51
66 66 66 67 67 68 68 69 69 69 70 70 71 71 71 72 72 73 74 74 75 75 76 76 77 77 78 78 78 78 78 78 78 77 77 76 75 74 72 70 68 66 64 63 62 61 60 60 59 59 59 58 58 57 57 56 55 54 54 54 54 54 53 52 51 49 49 48 48 48 48 49 49 48 48 49 49 49 49 49 49 49 49 49 49 49
66 66 67 67 68 68 69 69 70 70 70 71 71 72 72 73 73 74 74 75 76 76 76 77 77 78 78 78 78 78 78 78 77 76 76 74 73 71 69 67 65 64 62 61 61 61 60 60 59 59 58 58 57 57 56 56 55 54 54 53 53 53 52 51 49 48 47 46 46 46 46 46 46 46 47 47 47 47 47 47 48 48 48 48 48 48
66 67 67 68 69 69 70 70 70 71 71 72 72 73 73 73 74 74 75 76 76 77 77 77 77 78 78 78 78 78 78 77 76 75 73 72 70 68 66 64 63 62 61 60 60 60 60 60 59 59 58 58 57 57 56 55 55 54 54 53 52 52 51 49 48 46 45 45 44 44 44 44 44 44 45 45 45 46 46 46 46 46 46 46 46 46
67 67 68 69 69 70 70 71 71 72 72 72 73 73 74 74 75 75 76 76 77 77 77 77 78 78 78 78 78 77 77 76 74 73 71 69 67 65 63 61 60 60 59 59 59 59 59 59 59 59 58 58 57 56 55 55 54 54 53 53 52 50 49 47 46 44 43 43 43 42 42 42 42 42 43 43 44 44 44 44 44 44 45 45 45 45
67 68 69 69 70 71 71 71 72 72 73 73 73 74 74 75 75 76 76 76 77 77 78 78 78 78 78 78 77 77 76 74 72 70 68 65 63 62 60 59 59 58 58 58 58 59 59 59 58 58 58 57 57 56 55 54 53 53 53 52 50 49 47 45 44 43 42 42 41 41 40 40 40 41 41 42 42 42 42 42 42 43 43 43 43 43
68 69 69 70 71 71 72 72 72 73 73 74 74 75 75 75 76 76 77 77 77 78 78 78 78 78 78 77 76 75 73 71 69 67 64 63 61 60 59 58 58 57 58 58 58 58 58 58 58 58 57 57 56 55 54 53 53 52 51 50 49 47 45 43 42 41 41 40 40 40 39 39 39 40 40 40 41 41 40 40 40 41 41 42 42 42
69 69 70 71 71 72 72 73 73 73 74 74 75 75 75 76 76 76 77 77 78 78 78 78 78 78 77 76 74 72 70 68 66 63 61 60 59 58 57 57 57 57 57 57 57 58 58 58 58 57 56 56 55 55 54 53 52 51 50 48 46 45 43 41 40 40 40 39 39 39 38 38 38 38 39 39 40 40 39 39 39 39 39 40 40 40
70 70 71 71 72 72 73 73 73 74 74 75 75 75 76 76 76 77 77 77 78 78 78 78 77 77 76 74 72 69 67 65 63 61 59 58 57 57 56 56 56 56 57 57 57 57 58 58 57 57 56 55 54 54 53 52 51 49 48 46 44 42 41 39 39 39 39 38 38 38 37 37 37 38 38 39 39 39 38 38 38 38 38 38 38 39
71 71 72 72 72 73 73 73 74 74 74 75 75 76 76 76 77 77 77 78 78 78 78 77 76 75 73 71 69 66 64 62 60 59 58 57 56 56 56 56 56 56 56 56 56 57 57 57 57 57 55 54 53 52 51 50 49 48 46 44 42 40 39 38 38 38 38 38 37 37 37 37 37 37 38 38 39 38 38 37 37 37 37 37 37 37
Wind_Direction
307 308 308 309 309 309 309 309 308 308 307 306 306 305 305 305 305 305 305 305 304 304 304 304 303 303 303 303 303 304 304 305 306 307 308 309 310 311 311 312 313 313 314 315 316 317 317 318 320 321 323 324 325 325 326 326 325 321 313 299 280 264 252 245 241 239 238 236 234 233 231 230 230 231 231 232 233 234 234 235 235 236 237 237 238 238
307 307 308 308 309 309 309 309 308 308 307 307 306 306 305 305 305 305 305 305 304 304 304 303 303 303 303 303 303 304 305 305 306 307 308 309 310 311 311 312 313 313 314 315 316 316 317 317 318 319 320 321 321 321 321 320 319 316 310 300 287 273 261 253 247 244 242 241 239 238 236 234 233 232 232 233 233 234 234 235 235 236 236 237 237 238
307 307 307 308 308 308 308 309 309 308 308 308 307 307 306 306 305 305 305 305 304 304 304 304 304 304 304 304 304 305 305 306 307 308 309 309 310 311 312 312 313 313 314 315 315 316 316 316 316 317 317 317 317 317 316 314 313 310 305 298 290 279 269 261 255 250 246 244 243 241 240 239 237 237 236 236 235 236 236 236 236 237 237 237 237 238
306 306 307 307 308 308 308 309 309 309 309 308 308 307 307 307 306 306 305 305 305 305 305 304 305 305 305 305 306 306 307 308 308 309 309 310 311 311 312 312 313 313 314 314 315 315 315 315 315 315 315 315 314 313 311 309 306 303 300 294 288 280 273 266 260 255 251 248 246 244 243 242 241 240 240 239 239 239 239 238 239 239 239 239 239 239
305 306 306 307 307 308 308 309 309 309 309 309 309 308 308 307 307 307 306 306 306 306 306 306 306 306 306 307 307 308 308 309 309 310 310 311 311 311 312 312 313 313 314 314 314 315 315 314 314 313 313 313 312 310 308 305 302 298 294 290 285 280 274 268 263 259 254 251 248 246 245 244 243 242 242 242 242 242 242 241 241 241 241 242 242 241
305 306 306 307 307 308 308 309 309 309 309 309 309 309 309 308 308 307 307 307 307 307 307 307 307 308 308 308 309 309 309 310 310 310 310 310 311 311 311 312 312 313 313 313 313 313 314 313 313 312 312 311 310 309 307 304 301 296 292 288 283 279 275 270 266 262 258 255 252 249 248 246 245 245 244 244 244 243 243 243 243 243 244 244 244 244
304 305 306 306 307 307 308 308 309 309 309 309 309 309 309 309 309 308 308 308 308 308 308 308 308 309 309 309 309 310 310 310 310 310 310 310 311 311 311 311 311 312 312 312 312 312 312 312 312 311 310 309 308 307 306 303 301 297 293 288 283 279 276 272 269 266 263 260 256 254 251 249 248 247 247 246 246 245 245 245 245 245 245 245 245 245
304 305 305 306 307 307 308 308 308 309 309 309 309 309 309 309 309 309 309 309 309 309 309 309 309 309 309 310 310 310 310 310 310 310 310 310 310 310 310 310 310 311 311 311 311 311 311 310 310 309 308 307 306 305 304 302 300 297 294 290 286 281 277 274 271 268 266 263 261 259 256 254 252 250 249 248 248 247 247 247 247 246 246 246 246 246
303 304 305 306 306 307 307 308 308 308 308 308 309 309 309 309 309 309 309 309 309 309 309 309 309 309 309 309 309 309 309 309 309 309 310 310 310 310 310 310 310 310 310 310 309 309 309 309 308 308 307 305 304 303 301 300 298 297 294 291 288 284 280 276 273 270 268 266 264 262 260 258 256 254 252 251 250 249 249 248 248 248 248 247 247 247
303 304 304 305 306 307 307 307 307 308 308 308 308 308 309 309 309 309 309 309 309 309 309 309 309 309 309 309 309 309 309 309 309 309 309 310 310 310 310 310 310 310 309 309 308 308 307 307 306 306 305 304 303 301 299 298 296 295 293 291 288 285 282 279 275 272 269 267 265 264 262 261 259 258 256 254 253 251 250 250 249 249 249 249 249 248
302 303 304 305 305 306 306 307 307 307 308 308 308 308 308 309 309 309 309 309 309 309 309 309 309 309 309 309 309 309 309 309 309 309 310 310 310 310 310 310 310 310 309 309 308 307 307 306 305 304 303 302 301 299 298 296 294 293 291 289 288 285 283 280 277 274 271 269 267 265 264 262 261 260 259 257 256 254 253 252 251 250 249 249 249 249
302 303 303 304 305 306 306 306 307 307 307 308 308 308 308 309 309 309 309 309 309 309 309 309 309 309 309 309 309 309 309 309 309 310 310 310 311 311 310 310 310 310 309 309 308 307 306 305 304 303 302 301 299 298 297 295 294 292 290 288 286 284 282 280 278 275 273 270 268 266 265 263 262 261 260 259 258 257 256 254 253 252 251 251 251 250
301 302 303 304 304 305 306 306 307 307 307 308 308 308 308 309 309 309 309 309 309 309 309 309 309 309 309 309 309 309 310 310 310 310 310 311 311 311 311 310 310 310 309 309 308 307 306 305 304 303 301 300 298 297 295 294 293 291 289 287 285 283 281 279 278 276 274 272 270 268 266 265 263 262 261 260 260 259 258 257 256 255 254 253 252 252
301 302 302 303 304 305 305 306 306 307 307 307 308 308 308 308 309 309 309 309 309 309 309 309 309 309 309 309 309 310 310 310 310 310 311 311 311 311 311 311 310 310 309 309 308 307 306 305 304 303 301 300 298 296 295 293 292 290 289 287 285 283 281 279 277 276 274 272 271 269 267 266 264 263 262 261 260 260 259 258 257 257 256 255 254 254
301 301 302 303 304 304 305 305 306 306 307 307 307 307 308 308 308 308 308 308 308 308 308 309 309 309 309 309 310 310 310 310 310 310 311 311 311 311 311 311 310 310 309 309 308 307 306 305 304 303 301 300 298 296 295 293 291 289 287 286 284 282 280 279 277 276 274 273 271 270 268 267 265 264 263 262 261 260 259 259 258 258 257 257 256 255
300 301 301 302 303 303 304 305 305 306 306 306 307 307 307 307 307 307 308 307 308 308 308 308 308 309 309 309 309 309 310 310 310 310 310 310 311 311 311 311 310 310 309 309 308 307 306 305 304 303 301 300 298 297 295 293 291 289 287 285 283 281 280 278 277 275 274 273 272 270 269 267 266 265 264 262 261 260 259 259 258 258 257 257 257 257
300 300 301 301 302 303 303 304 304 305 305 305 306 306 306 306 307 307 307 307 307 307 307 308 308 308 308 308 308 309 309 309 309 309 310 310 310 310 311 310 310 309 309 308 307 307 306 305 303 302 301 300 298 297 295 294 292 289 287 285 283 281 279 277 276 275 274 272 271 270 269 268 267 266 264 263 262 261 260 259 259 258 257 257 257 257
300 300 300 301 301 302 302 303 303 304 304 304 305 305 305 306 306 306 306 306 306 307 307 307 307 307 308 308 308 308 309 309 309 309 309 309 310 310 310 310 309 309 308 308 307 306 305 304 303 302 300 299 298 297 295 294 292 290 288 285 283 281 279 277 276 274 273 272 271 270 269 268 267 266 265 264 263 262 261 260 259 259 258 257 257 256
299 300 300 300 301 301 301 302 302 303 303 304 304 304 305 305 305 305 305 305 306 306 306 306 307 307 307 307 308 308 308 308 308 308 308 309 309 309 309 309 309 308 308 307 306 306 305 304 302 301 300 299 298 297 295 294 292 290 288 286 284 282 280 278 276 275 273 272 271 270 269 268 267 266 265 264 263 263 262 261 260 260 259 258 257 257
299 299 300 300 300 301 301 301 302 302 302 303 303 303 304 304 304 304 305 305 305 305 305 306 306 306 307 307 307 307 308 308 308 308 308 308 308 309 309 309 308 308 307 307 306 305 304 303 302 301 300 299 298 297 295 294 292 290 288 286 284 282 280 279 277 275 274 272 271 270 269 268 267 266 265 264 264 263 262 262 261 260 260 259 258 258
299 299 299 300 300 300 300 301 301 301 302 302 302 303 303 303 304 304 304 304 304 305 305 305 306 306 306 307 307 307 307 307 307 307 307 307 308 308 309 308 308 307 307 306 306 305 304 303 302 301 300 299 298 297 296 294 293 291 289 287 285 283 281 279 277 276 274 273 271 270 269 268 267 266 265 265 264 263 263 262 261 261 260 260 259 259
299 299 299 299 300 300 300 300 300 301 301 301 302 302 302 303 303 303 303 304 304 304 305 305 305 306 306 306 306 307 307 307 307 307 307 307 308 308 308 308 308 307 307 306 306 305 304 303 303 302 301 300 299 298 297 295 293 292 290 288 286 284 282 280 278 276 275 273 272 271 270 269 268 267 266 265 264 264 263 262 262 261 261 260 260 259
298 299 299 299 299 300 300 300 300 300 300 301 301 301 302 302 302 303 303 303 303 304 304 304 305 305 305 306 306 306 306 306 306 306 307 307 307 308 308 308 308 307 307 306 306 305 305 304 303 302 301 301 300 299 297 296 294 293 291 289 287 285 283 281 279 277 276 274 273 272 271 269 269 268 267 266 265 265 264 263 263 262 262 261 260 260
298 298 299 299 299 299 299 300 300 300 300 300 300 301 301 301 301 302 302 302 303 303 304 304 304 305 305 305 305 305 306 306 306 306 306 307 307 308 308 308 308 307 307 307 306 306 305 304 303 303 302 301 301 300 298 297 295 294 292 290 288 286 284 282 280 278 277 275 274 272 271 270 269 269 268 267 266 266 265 264 264 263 263 262 262 261
297 298 298 299 299 299 300 300 300 300 300 300 300 300 301 301 301 301 301 302 302 302 303 303 304 304 304 305 305 305 305 305 306 306 306 307 307 307 308 308 308 307 307 307 306 306 305 305 304 303 303 302 301 300 299 298 296 294 293 291 289 287 285 283 281 280 278 277 275 274 273 272 271 270 269 268 268 267 266 266 265 265 264 264 263 263
297 297 298 298 299 299 300 300 300 300 300 300 300 300 300 300 300 301 301 301 301 302 302 303 303 304 304 304 304 304 305 305 305 305 306 306 307 307 307 307 307 307 307 307 306 306 306 305 304 304 303 303 302 301 300 298 297 295 293 291 290 288 286 284 283 281 280 278 277 276 275 274 272 272 271 270 269 269 268 267 267 266 266 265 265 265
296 297 297 298 299 299 300 300 300 300 300 300 300 300 300 300 300 300 300 301 301 301 302 302 303 303 304 304 304 304 304 304 305 305 306 306 306 307 307 307 307 307 307 307 306 306 306 305 305 304 304 303 302 301 300 298 297 295 293 292 290 288 287 285 284 282 281 280 279 278 277 276 275 274 273 272 271 270 270 269 268 268 267 267 267 266
296 296 296 297 298 299 299 300 300 300 300 300 300 300 300 300 300 300 300 301 301 301 302 302 303 303 303 303 303 304 304 304 305 305 306 306 306 306 307 307 307 307 307 306 306 306 305 305 305 304 304 303 302 301 300 298 297 295 293 292 290 289 287 286 285 284 283 282 281 280 279 278 277 276 275 274 273 272 271 271 270 269 269 268 267 267
295 295 295 296 297 298 299 299 299 300 300 300 300 300 300 300 300 300 300 301 301 302 302 302 303 303 303 303 303 304 304 304 305 306 306 306 306 306 307 307 307 307 307 306 306 306 305 305 304 304 303 303 302 300 299 298 296 295 293 292 291 289 288 287 286 285 284 283 282 281 280 279 279 278 277 276 275 274 273 272 271 271 270 269 268 268
295 295 295 295 296 297 298 298 299 299 299 299 300 300 300 300 300 300 301 301 301 302 302 302 303 303 303 303 303 304 304 305 305 306 306 306 306 307 307 307 307 307 307 307 306 306 305 305 304 304 303 302 301 300 299 297 296 295 293 292 291 290 289 288 287 286 285 284 283 283 282 281 280 279 278 277 276 275 274 273 272 272 271 270 269 269
296 295 295 295 295 296 297 298 298 299 299 299 299 299 300 300 300 300 301 301 302 302 302 302 303 303 303 303 303 303 304 305 306 306 307 306 306 307 307 307 307 307 307 306 306 306 305 305 304 303 302 301 300 299 298 297 296 295 294 293 292 291 290 289 288 287 286 285 285 284 283 282 281 279 279 278 277 276 275 274 273 273 272 271 270 270
297 295 295 295 295 296 296 297 298 298 299 299 299 299 300 300 300 301 301 301 302 302 302 302 302 302 303 303 303 303 304 305 306 306 307 307 307 307 307 307 307 307 307 306 306 306 305 305 304 303 302 301 300 299 298 296 296 295 294 293 293 292 291 290 289 288 287 286 285 284 283 282 281 280 279 278 277 277 276 275 274 273 273 272 271 271
297 296 295 295 295 295 296 297 297 298 298 299 299 300 300 300 300 301 301 302 302 302 302 302 302 302 302 303 303 304 304 305 306 306 307 307 307 307 307 307 307 307 307 306 306 305 305 304 303 302 301 300 299 298 297 296 296 295 295 294 293 293 292 291 290 289 288 287 286 285 284 283 282 281 280 279 278 277 277 276 275 274 274 273 272 272
297 296 295 295 295 295 296 296 297 298 298 299 299 300 300 301 301 301 302 302 302 302 302 302 302 302 303 303 304 304 305 305 306 306 307 307 307 307 307 307 307 307 306 306 305 305 304 303 302 302 300 299 298 297 296 296 296 295 295 295 294 294 293 292 291 290 289 288 287 286 285 284 283 282 281 280 279 278 278 277 276 275 274 274 273 273
297 296 295 295 295 295 295 296 297 297 298 299 299 300 301 301 301 302 302 302 302 302 302 302 302 302 303 303 304 305 305 306 306 307 307 307 307 307 307 307 307 306 306 305 305 304 303 303 302 301 300 299 298 297 296 296 296 296 295 295 295 294 294 293 292 291 290 289 288 287 286 285 284 283 282 281 280 279 279 278 277 276 276 275 274 274
297 296 295 295 295 295 295 296 297 297 298 299 299 300 301 301 301 302 302 302 302 302 302 302 302 303 303 304 304 305 305 306 306 306 306 307 307 307 306 306 306 306 305 305 304 304 303 302 301 300 299 298 298 297 297 297 296 296 296 295 295 295 294 294 293 292 291 290 289 289 288 287 286 285 284 283 282 281 280 279 279 278 278 277 276 276
297 296 296 295 295 295 295 296 296 297 298 299 300 300 301 301 302 302 302 302 302 302 302 302 303 303 304 304 305 305 305 306 306 306 306 306 306 306 306 306 306 305 305 304 304 303 302 301 300 299 298 298 298 298 298 297 297 297 296 296 296 295 295 294 293 293 292 291 291 290 289 288 287 286 285 284 283 283 282 282 281 281 280 279 279 278
297 296 296 296 295 295 296 296 297 297 298 299 300 301 301 301 301 302 302 302 302 302 302 303 303 304 304 305 305 305 305 306 306 306 306 306 306 306 306 305 305 305 304 304 303 302 301 300 299 299 298 298 298 298 298 298 298 298 297 296 296 295 295 294 294 293 293 293 292 291 290 289 288 287 286 286 285 285 284 284 283 283 282 281 280 279
297 296 296 296 296 296 296 296 297 298 299 299 300 301 301 301 301 301 301 301 302 302 302 303 303 304 304 305 305 305 305 305 306 306 306 306 306 306 305 305 305 304 303 303 302 301 300 299 299 298 298 298 298 299 299 299 299 298 298 297 296 295 295 295 294 294 294 294 293 292 291 290 289 288 288 288 287 287 287 286 285 285 284 283 282 281
297 296 296 296 296 296 296 297 297 298 299 300 300 301 301 301 301 301 301 301 302 302 303 303 304 304 304 305 305 305 305 305 306 306 306 306 306 306 305 305 304 304 303 302 301 300 299 299 298 298 298 299 299 299 299 299 299 299 298 298 297 296 296 295 295 295 295 294 293 293 291 291 290 290 290 290 289 289 289 288 287 286 285 284 284 283
297 296 296 296 296 296 297 297 298 299 299 300 300 301 301 301 301 301 302 302 302 303 303 304 304 304 304 305 305 305 305 305 306 306 306 306 306 305 305 304 304 303 302 301 300 300 299 299 298 298 299 299 299 299 299 299 299 299 299 298 297 297 297 296 296 296 295 294 293 292 292 291 291 291 291 291 291 291 290 290 289 288 288 287 286 285
297 297 296 297 297 297 297 298 299 299 300 300 300 301 301 301 301 301 302 302 302 303 303 304 304 304 304 305 305 305 305 306 306 306 306 306 306 305 305 304 303 302 301 301 300 299 299 299 299 299 299 299 299 299 299 300 300 300 299 299 298 298 297 297 297 296 295 294 293 292 292 292 292 293 293 293 293 293 292 292 291 291 290 290 289 288
297 297 297 297 297 298 298 299 299 300 300 300 300 301 301 301 301 302 302 302 303 303 304 304 304 304 304 305 305 305 305 306 306 306 306 306 305 305 304 303 302 302 301 300 300 299 299 299 299 299 299 300 300 300 300 300 300 300 299 299 299 299 299 298 297 296 295 293 292 292 292 292 293 294 294 295 295 294 294 294 294 294 293 292 291 290
297 297 297 298 298 298 299 299 299 300 300 300 300 301 301 301 302 302 302 302 303 303 303 304 304 304 304 305 305 305 306 306 306 306 305 305 305 304 303 302 302 301 300 300 300 300 300 300 300 300 300 300 300 300 300 300 300 300 300 300 300 300 299 299 297 296 294 293 292 292 292 293 294 295 295 296 296 296 296 296 296 296 295 295 293 292
297 297 298 298 298 299 299 299 300 300 300 300 301 301 301 302 302 302 302 303 303 303 303 304 304 304 304 305 305 305 305 305 305 305 305 304 304 303 302 302 301 300 300 300 300 300 300 300 300 300 300 300 300 300 300 301 301 301 301 300 300 300 299 298 297 295 294 293 292 292 293 294 295 296 296 297 297 297 298 298 298 298 297 296 295 294
297 298 298 298 298 299 299 300 300 300 300 301 301 301 301 302 302 302 302 303 303 303 304 304 304 304 304 305 305 305 305 305 305 305 304 304 303 302 302 301 301 300 300 300 300 300 300 300 300 300 300 300 300 300 301 301 301 301 301 301 300 300 299 297 296 295 293 293 293 293 294 295 296 297 298 298 298 299 299 300 300 299 298 297 296 296
298 298 298 299 299 299 300 300 300 300 301 301 301 301 302 302 302 302 303 303 303 303 304 304 304 304 305 305 305 305 305 305 305 304 304 303 302 302 301 301 300 300 300 300 300 300 300 299 299 299 300 300 300 300 301 301 301 301 302 301 300 299 298 297 295 294 293 293 294 295 296 297 298 298 299 299 300 300 301 301 301 300 300 299 298 297
298 298 299 299 299 300 300 300 300 301 301 301 301 302 302 302 302 303 303 303 303 304 304 304 304 305 305 305 305 305 305 305 304 304 303 302 302 301 301 301 301 301 300 300 300 300 299 299 299 299 299 300 300 301 301 302 302 302 301 301 300 298 297 296 295 294 294 294 295 296 297 298 299 299 300 300 301 301 302 302 302 301 300 300 299 298
299 299 299 299 299 300 300 300 301 301 301 301 302 302 302 302 303 303 303 304 304 304 304 305 305 305 305 305 305 305 305 304 304 303 302 302 301 301 301 301 301 301 301 300 300 300 299 299 299 299 299 300 301 301 302 302 302 302 301 300 299 297 296 295 294 294 294 295 296 297 298 299 300 301 301 302 302 303 303 303 303 303 302 301 300 299
299 299 299 300 300 300 300 300 301 301 301 302 302 302 302 303 303 303 303 304 304 304 304 305 305 305 305 305 305 305 304 304 303 302 302 302 301 301 301 301 301 301 301 300 300 299 299 299 299 299 299 300 301 302 302 302 302 302 301 299 298 297 295 294 294 294 294 295 296 297 299 300 301 302 302 303 303 303 304 304 304 304 303 302 301 300
299 300 300 300 300 300 300 301 301 301 302 302 302 302 303 303 303 304 304 304 304 304 305 305 305 305 305 305 305 304 304 303 303 302 302 302 302 302 302 302 301 301 301 300 299 299 299 299 299 299 300 300 301 302 302 303 302 301 300 298 297 296 295 294 294 294 295 296 297 298 300 301 302 303 303 304 304 304 305 305 305 305 304 304 303 302
Height
10514 10511 10508 10506 10502 10499 10496 10494 10492 10489 10487 10486 10484 10482 10480 10478 10476 10474 10472 10471 10469 10468 10466 10464 10463 10461 10459 10457 10456 10454 10452 10451 10449 10447 10445 10443 10441 10439 10437 10435 10434 10432 10431 10429 10427 10424 10422 10420 10419 10419 10419 10417 10416 10414 10413 10412 10411 10411 10411 10412 10412 10413 10414 10414 10415 10416 10417 10419 10420 10421 10422 10423 10424 10426 10426 10427 10428 10429 10430 10431 10432 10434 10435 10436 10437 10439
10511 10508 10505 10502 10499 10496 10492 10491 10489 10486 10484 10482 10480 10478 10476 10474 10472 10471 10469 10467 10466 10464 10462 10461 10459 10458 10456 10454 10453 10451 10449 10447 10446 10444 10442 10439 10437 10436 10434 10432 10430 10429 10427 10427 10425 10423 10420 10418 10417 10417 10417 10416 10416 10414 10413 10412 10411 10411 10411 10411 10411 10412 10413 10414 10414 10415 10416 10417 10417 10419 10420 10421 10421 10422 10422 10423 10424 10424 10426 10426 10427 10429 10430 10431 10432 10434
10507 10504 10501 10499 10496 10493 10490 10487 10485 10483 10481 10478 10476 10474 10473 10471 10469 10467 10466 10464 10462 10461 10459 10457 10456 10454 10452 10451 10449 10447 10446 10444 10442 10440 10438 10436 10434 10432 10431 10429 10427 10425 10424 10423 10422 10421 10419 10417 10415 10414 10414 10415 10415 10414 10413 10412 10411 10411 10410 10410 10410 10411 10411 10412 10412 10413 10414 10414 10416 10416 10417 10418 10418 10419 10419 10419 10419 10420 10421 10422 10422 10424 10424 10426 10427 10428
10504 10501 10498 10496 10493 10490 10487 10484 10482 10479 10477 10475 10473 10471 10469 10467 10466 10464 10462 10460 10459 10457 10455 10454 10452 10450 10449 10447 10445 10444 10442 10440 10439 10437 10435 10433 10431 10429 10427 10426 10424 10422 10421 10420 10419 10418 10417 10416 10414 10412 10412 10412 10412 10413 10412 10412 10411 10410 10409 10409 10409 10409 10409 10409 10410 10411 10411 10412 10413 10414 10414 10415 10416 10416 10416 10416 10417 10417 10417 10418 10419 10419 10420 10421 10422 10424
10500 10497 10495 10492 10489 10487 10484 10481 10479 10476 10474 10472 10470 10468 10466 10464 10462 10460 10458 10457 10455 10453 10451 10450 10448 10446 10444 10443 10441 10439 10438 10436 10435 10433 10431 10430 10428 10427 10425 10424 10422 10420 10418 10417 10416 10416 10415 10414 10412 10411 10409 10409 10409 10410 10411 10411 10410 10409 10409 10408 10407 10407 10407 10407 10407 10407 10408 10409 10409 10411 10411 10411 10412 10412 10412 10412 10413 10414 10414 10415 10416 10416 10417 10417 10419 10420
10496 10494 10492 10489 10486 10484 10481 10479 10476 10474 10471 10469 10467 10465 10463 10461 10459 10457 10455 10453 10451 10449 10448 10446 10444 10442 10441 10439 10437 10436 10434 10433 10431 10430 10429 10427 10426 10424 10422 10421 10419 10418 10416 10414 10413 10412 10412 10411 10411 10409 10407 10407 10406 10406 10407 10407 10407 10407 10407 10407 10406 10406 10406 10405 10405 10405 10405 10406 10406 10406 10407 10407 10408 10408 10409 10409 10409 10409 10410 10411 10411 10412 10412 10413 10414 10416
10492 10491 10488 10486 10483 10481 10478 10476 10473 10471 10468 10466 10464 10462 10460 10458 10456 10454 10452 10450 10448 10446 10445 10443 10441 10439 10438 10436 10434 10433 10431 10430 10429 10427 10426 10424 10422 10421 10420 10419 10417 10416 10414 10413 10411 10410 10409 10409 10408 10407 10406 10405 10404 10403 10403 10403 10404 10404 10404 10404 10404 10404 10403 10403 10402 10402 10402 10402 10402 10402 10403 10403 10404 10404 10404 10404 10405 10405 10406 10406 10406 10407 10407 10408 10409 10410
10488 10486 10484 10482 10480 10477 10475 10473 10471 10468 10466 10463 10461 10459 10457 10455 10453 10451 10449 10447 10446 10444 10442 10440 10438 10437 10435 10434 10432 10431 10429 10427 10426 10424 10422 10421 10420 10419 10417 10416 10414 10413 10412 10411 10409 10408 10407 10406 10406 10405 10404 10403 10402 10401 10400 10400 10400 10400 10401 10401 10401 10401 10401 10400 10400 10399 10399 10399 10399 10399 10399 10399 10399 10399 10399 10400 10400 10401 10401 10401 10402 10402 10402 10403 10404 10405
10484 10482 10480 10479 10477 10474 10471 10469 10467 10466 10463 10461 10458 10456 10454 10451 10449 10448 10446 10444 10442 10441 10439 10437 10436 10434 10432 10431 10429 10428 10426 10425 10423 10422 10420 10419 10417 10416 10414 10412 10411 10411 10409 10408 10407 10406 10405 10404 10403 10402 10401 10401 10400 10399 10397 10397 10396 10396 10396 10396 10397 10397 10397 10397 10397 10396 10396 10396 10396 10395 10395 10395 10395 10395 10395 10395 10395 10396 10396 10396 10397 10397 10397 10398 10399 10399
10481 10479 10476 10474 10473 10471 10469 10466 10464 10462 10461 10457 10456 10453 10451 10449 10446 10444 10442 10441 10439 10438 10437 10435 10433 10431 10429 10428 10427 10426 10424 10422 10421 10419 10417 10416 10414 10412 10411 10409 10408 10407 10406 10405 10404 10403 10402 10401 10401 10399 10399 10398 10397 10396 10396 10394 10394 10393 10392 10392 10392 10392 10392 10392 10392 10392 10392 10392 10391 10391 10391 10391 10391 10391 10391 10391 10391 10391 10391 10391 10391 10392 10392 10392 10393 10394
10477 10475 10473 10471 10469 10467 10466 10463 10461 10459 10457 10454 10452 10450 10448 10446 10444 10441 10439 10437 10436 10435 10433 10432 10430 10428 10426 10425 10424 10422 10421 10419 10417 10416 10414 10412 10411 10409 10407 10406 10405 10404 10402 10401 10401 10399 10399 10398 10397 10397 10396 10395 10394 10393 10392 10392 10391 10390 10389 10389 10388 10388 10388 10388 10388 10388 10388 10387 10387 10387 10387 10386 10386 10386 10386 10386 10386 10386 10386 10386 10386 10386 10387 10387 10387 10388
10472 10471 10469 10467 10465 10463 10461 10459 10457 10455 10453 10451 10449 10446 10444 10442 10441 10439 10436 10434 10432 10431 10429 10428 10427 10425 10424 10421 10420 10418 10417 10416 10414 10412 10411 10409 10407 10406 10404 10402 10401 10400 10399 10397 10396 10396 10395 10394 10394 10393 10392 10392 10391 10389 10389 10388 10387 10387 10386 10386 10385 10384 10384 10384 10383 10383 10383 10383 10382 10382 10382 10382 10381 10381 10381 10381 10381 10381 10381 10381 10381 10381 10381 10381 10382 10382
10469 10467 10465 10463 10461 10459 10457 10455 10453 10451 10449 10447 10445 10442 10441 10439 10437 10436 10433 10431 10429 10427 10426 10424 10422 10421 10420 10418 10416 10414 10412 10411 10410 10409 10407 10406 10404 10402 10401 10399 10397 10396 10395 10393 10392 10391 10390 10389 10389 10389 10389 10388 10387 10386 10385 10384 10383 10382 10382 10381 10381 10380 10379 10379 10379 10378 10378 10378 10377 10377 10377 10377 10377 10376 10376 10376 10376 10376 10375 10375 10375 10375 10375 10376 10376 10376
10464 10463 10461 10459 10457 10455 10453 10451 10449 10447 10446 10444 10442 10439 10437 10435 10434 10432 10429 10427 10426 10424 10422 10421 10419 10417 10416 10414 10412 10411 10409 10407 10406 10404 10403 10402 10401 10399 10397 10396 10394 10392 10391 10389 10388 10386 10386 10385 10384 10384 10383 10383 10382 10382 10381 10381 10379 10379 10377 10377 10376 10376 10375 10374 10374 10373 10372 10372 10372 10372 10372 10372 10372 10371 10371 10371 10371 10370 10370 10369 10369 10369 10369 10369 10369 10369
10461 10459 10457 10454 10452 10451 10449 10447 10446 10443 10441 10440 10438 10436 10434 10432 10430 10428 10426 10424 10422 10421 10419 10417 10415 10414 10412 10411 10409 10407 10405 10403 10401 10400 10399 10397 10397 10396 10394 10391 10389 10388 10387 10386 10384 10382 10381 10380 10379 10378 10377 10377 10377 10377 10377 10376 10376 10374 10374 10372 10371 10371 10369 10369 10368 10367 10367 10367 10367 10366 10366 10366 10366 10366 10366 10366 10365 10365 10364 10364 10364 10364 10363 10363 10363 10363
10457 10455 10452 10451 10449 10447 10446 10444 10442 10439 10437 10436 10434 10432 10431 10428 10426 10424 10422 10421 10419 10417 10416 10414 10411 10409 10408 10407 10406 10404 10401 10399 10397 10396 10395 10393 10392 10392 10390 10388 10386 10384 10383 10382 10380 10378 10377 10376 10374 10373 10372 10372 10371 10371 10371 10371 10370 10369 10369 10367 10366 10365 10364 10363 10362 10362 10361 10361 10361 10360 10360 10360 10360 10359 10359 10359 10359 10359 10358 10358 10358 10357 10357 10357 10357 10357
10453 10451 10449 10447 10445 10443 10441 10440 10438 10436 10434 10432 10431 10429 10427 10425 10423 10421 10419 10417 10415 10413 10412 10410 10408 10406 10404 10402 10401 10400 10398 10396 10393 10391 10391 10389 10388 10387 10386 10384 10382 10380 10379 10377 10376 10374 10372 10371 10369 10368 10367 10366 10366 10365 10365 10364 10364 10363 10362 10362 10361 10360 10359 10358 10357 10356 10356 10355 10354 10354 10354 10353 10353 10353 10352 10352 10352 10352 10352 10352 10351 10351 10351 10351 10351 10351
10449 10447 10445 10443 10441 10439 10437 10436 10434 10432 10431 10429 10427 10425 10423 10421 10419 10417 10416 10414 10412 10409 10407 10406 10404 10402 10401 10398 10396 10395 10394 10392 10389 10387 10386 10385 10384 10383 10382 10380 10378 10376 10374 10373 10371 10370 10368 10366 10365 10363 10362 10361 10360 10359 10359 10358 10357 10357 10356 10355 10354 10354 10352 10352 10351 10350 10349 10349 10348 10347 10347 10346 10346 10346 10346 10345 10345 10344 10344 10344 10344 10344 10344 10344 10344 10344
10444 10443 10441 10439 10437 10435 10433 10432 10430 10428 10426 10424 10422 10421 10419 10417 10416 10414 10411 10409 10407 10406 10404 10402 10401 10399 10397 10394 10392 10391 10390 10387 10385 10382 10381 10380 10379 10379 10378 10376 10374 10372 10370 10369 10367 10366 10364 10362 10360 10358 10357 10356 10355 10354 10353 10352 10351 10350 10349 10348 10347 10347 10346 10345 10344 10344 10342 10342 10341 10341 10340 10339 10339 10339 10338 10338 10337 10337 10337 10337 10336 10336 10336 10336 10336 10336
10441 10439 10437 10436 10433 10431 10429 10427 10426 10424 10422 10421 10419 10417 10415 10413 10411 10409 10407 10406 10404 10402 10400 10398 10396 10394 10393 10391 10389 10387 10386 10384 10381 10378 10377 10376 10374 10374 10374 10372 10369 10367 10365 10364 10362 10361 10359 10356 10354 10353 10352 10351 10349 10349 10347 10346 10345 10344 10342 10342 10341 10340 10339 10338 10337 10336 10336 10335 10334 10334 10333 10332 10332 10331 10331 10331 10330 10329 10329 10329 10329 10329 10328 10328 10328 10327
10436 10434 10433 10432 10429 10427 10425 10423 10422 10420 10418 10416 10414 10412 10411 10409 10407 10405 10403 10401 10399 10397 10396 10394 10392 10390 10389 10386 10384 10382 10381 10379 10376 10374 10372 10371 10369 10369 10369 10367 10364 10362 10360 10359 10357 10356 10354 10351 10349 10347 10346 10344 10344 10342 10341 10340 10339 10337 10336 10335 10334 10332 10332 10331 10330 10329 10328 10327 10327 10326 10326 10325 10324 10324 10323 10322 10322 10322 10321 10321 10321 10321 10320 10320 10320 10319
10432 10431 10429 10427 10426 10424 10421 10419 10417 10416 10414 10412 10410 10408 10406 10404 10402 10400 10398 10396 10394 10392 10391 10389 10387 10386 10384 10382 10380 10378 10377 10374 10372 10369 10367 10365 10364 10363 10363 10362 10359 10357 10355 10353 10352 10350 10348 10346 10343 10341 10340 10339 10337 10336 10335 10333 10332 10331 10329 10327 10326 10325 10324 10323 10322 10321 10321 10319 10319 10318 10317 10317 10316 10316 10315 10314 10314 10314 10313 10313 10312 10312 10312 10312 10311 10311
10429 10427 10425 10423 10422 10419 10417 10415 10413 10412 10410 10408 10406 10404 10402 10400 10398 10396 10394 10392 10390 10388 10386 10384 10383 10381 10380 10378 10376 10374 10372 10370 10367 10365 10362 10360 10358 10357 10357 10356 10354 10351 10349 10347 10346 10344 10342 10340 10337 10336 10334 10332 10331 10329 10327 10326 10325 10323 10322 10320 10319 10317 10316 10315 10314 10313 10312 10311 10311 10310 10309 10309 10308 10307 10307 10306 10306 10305 10305 10304 10304 10304 10303 10303 10302 10302
10424 10422 10421 10419 10417 10416 10414 10411 10409 10407 10406 10404 10402 10400 10398 10396 10394 10392 10389 10387 10386 10384 10382 10380 10378 10376 10374 10373 10371 10369 10367 10365 10362 10360 10357 10355 10352 10351 10351 10349 10347 10345 10342 10342 10340 10338 10336 10333 10331 10329 10327 10325 10324 10322 10321 10319 10317 10316 10314 10312 10311 10310 10309 10307 10306 10305 10304 10303 10302 10302 10301 10300 10299 10299 10298 10297 10297 10296 10296 10296 10295 10294 10294 10294 10293 10293
10419 10418 10416 10414 10413 10411 10409 10407 10405 10403 10401 10399 10397 10396 10394 10392 10389 10387 10386 10384 10381 10379 10377 10375 10373 10371 10369 10368 10366 10364 10362 10361 10358 10356 10352 10349 10347 10346 10344 10343 10341 10338 10336 10335 10334 10332 10329 10326 10324 10322 10321 10318 10317 10315 10313 10311 10310 10308 10306 10305 10303 10302 10301 10299 10298 10297 10296 10295 10294 10293 10292 10292 10291 10290 10289 10289 10288 10287 10287 10286 10286 10285 10285 10284 10284 10284
10414 10413 10411 10410 10408 10406 10404 10402 10401 10398 10396 10394 10392 10391 10389 10387 10385 10383 10381 10379 10377 10375 10372 10371 10369 10367 10365 10364 10361 10359 10357 10356 10354 10351 10348 10345 10342 10339 10338 10337 10336 10332 10329 10328 10327 10325 10322 10320 10317 10316 10314 10311 10309 10308 10306 10304 10302 10301 10299 10297 10296 10294 10292 10291 10290 10289 10288 10287 10286 10285 10284 10284 10282 10282 10281 10281 10279 10279 10278 10277 10277 10276 10276 10275 10274 10274
10409 10408 10406 10405 10403 10401 10399 10397 10396 10394 10392 10390 10388 10386 10384 10382 10380 10377 10376 10374 10372 10371 10368 10366 10364 10362 10360 10358 10356 10354 10352 10350 10348 10346 10344 10341 10337 10334 10332 10331 10329 10327 10324 10321 10320 10319 10316 10313 10311 10309 10307 10304 10302 10301 10299 10297 10295 10293 10291 10290 10288 10287 10286 10284 10282 10281 10281 10279 10278 10277 10276 10276 10274 10274 10273 10272 10271 10271 10269 10269 10268 10267 10267 10266 10266 10265
10404 10403 10401 10400 10398 10397 10395 10393 10391 10389 10387 10385 10383 10381 10379 10377 10375 10372 10371 10369 10367 10366 10363 10361 10359 10357 10354 10352 10351 10349 10347 10344 10342 10341 10339 10336 10332 10329 10327 10326 10323 10321 10318 10315 10313 10312 10310 10307 10305 10302 10300 10298 10296 10294 10292 10290 10288 10286 10284 10282 10281 10279 10278 10277 10276 10274 10273 10272 10271 10270 10269 10268 10267 10266 10265 10264 10263 10262 10261 10260 10259 10259 10258 10257 10256 10256
10399 10398 10396 10395 10394 10392 10391 10389 10386 10384 10382 10381 10379 10376 10374 10372 10370 10367 10366 10364 10362 10360 10357 10356 10354 10352 10349 10347 10344 10342 10341 10339 10337 10335 10333 10330 10326 10323 10322 10319 10317 10314 10312 10309 10306 10304 10303 10301 10299 10297 10294 10291 10289 10287 10285 10282 10281 10279 10277 10276 10274 10272 10271 10270 10269 10267 10266 10265 10264 10262 10262 10261 10259 10258 10257 10256 10255 10254 10252 10252 10251 10250 10249 10249 10248 10247
10394 10392 10391 10390 10389 10387 10386 10384 10382 10380 10378 10376 10374 10372 10370 10368 10366 10363 10361 10359 10357 10355 10352 10350 10348 10346 10344 10341 10338 10336 10334 10332 10331 10329 10327 10324 10320 10317 10316 10313 10311 10308 10306 10303 10299 10297 10295 10294 10293 10291 10288 10285 10282 10280 10278 10276 10274 10272 10270 10269 10267 10266 10264 10263 10262 10261 10259 10258 10257 10256 10254 10253 10252 10251 10249 10248 10247 10246 10245 10244 10243 10242 10241 10240 10239 10238
10389 10387 10386 10384 10383 10382 10381 10379 10377 10375 10373 10371 10369 10367 10365 10363 10361 10359 10356 10354 10352 10350 10347 10345 10342 10341 10338 10336 10333 10330 10327 10326 10325 10324 10321 10317 10314 10311 10309 10307 10303 10301 10300 10297 10294 10290 10287 10286 10285 10284 10282 10279 10276 10274 10271 10269 10267 10265 10263 10262 10260 10259 10258 10257 10255 10254 10252 10252 10251 10249 10247 10246 10244 10243 10242 10241 10239 10238 10237 10236 10235 10234 10233 10232 10230 10230
10383 10382 10380 10379 10377 10376 10374 10373 10371 10369 10367 10366 10364 10362 10361 10358 10356 10354 10352 10349 10347 10345 10342 10339 10337 10335 10332 10331 10328 10325 10322 10319 10318 10317 10315 10311 10307 10304 10303 10301 10297 10294 10292 10291 10288 10284 10281 10277 10276 10276 10275 10272 10270 10267 10265 10263 10261 10259 10257 10255 10254 10252 10251 10250 10249 10247 10246 10245 10244 10242 10241 10239 10237 10236 10234 10233 10232 10230 10229 10228 10227 10226 10225 10224 10222 10222
10378 10376 10375 10373 10372 10371 10369 10367 10366 10364 10362 10360 10359 10357 10355 10353 10351 10349 10347 10344 10342 10340 10337 10334 10332 10329 10327 10324 10322 10319 10317 10314 10312 10311 10308 10305 10301 10298 10296 10294 10291 10287 10285 10283 10281 10279 10276 10272 10269 10267 10266 10265 10264 10261 10259 10257 10255 10252 10251 10249 10247 10246 10244 10243 10242 10241 10239 10238 10236 10235 10234 10232 10230 10229 10227 10226 10224 10223 10222 10220 10220 10219 10217 10216 10215 10214
10373 10371 10370 10368 10367 10365 10363 10362 10360 10358 10356 10354 10352 10351 10349 10347 10345 10343 10341 10339 10337 10334 10332 10329 10326 10324 10321 10318 10316 10313 10311 10309 10307 10304 10302 10299 10295 10292 10289 10287 10284 10282 10279 10276 10273 10271 10268 10266 10263 10261 10258 10257 10256 10255 10254 10251 10249 10247 10246 10243 10241 10239 10237 10237 10235 10234 10232 10230 10229 10228 10226 10225 10223 10222 10220 10219 10217 10215 10214 10213 10212 10211 10210 10209 10207 10206
10368 10366 10365 10363 10362 10360 10358 10356 10354 10352 10351 10349 10347 10346 10344 10342 10339 10337 10335 10333 10331 10329 10326 10324 10321 10319 10316 10312 10310 10307 10304 10302 10301 10298 10296 10292 10289 10286 10283 10281 10278 10276 10272 10269 10267 10264 10261 10258 10256 10254 10251 10249 10248 10248 10247 10246 10244 10242 10240 10238 10235 10233 10231 10230 10228 10227 10225 10224 10222 10220 10219 10218 10216 10214 10213 10211 10210 10209 10207 10206 10205 10204 10202 10201 10200 10199
10363 10361 10360 10358 10357 10355 10353 10351 10349 10347 10345 10343 10342 10340 10338 10336 10334 10332 10329 10327 10325 10322 10320 10317 10316 10313 10311 10308 10305 10302 10299 10296 10294 10292 10289 10287 10284 10281 10277 10274 10272 10270 10266 10263 10260 10257 10255 10251 10249 10247 10246 10243 10241 10240 10241 10241 10239 10237 10235 10233 10230 10228 10225 10224 10222 10220 10218 10217 10215 10214 10212 10210 10209 10207 10205 10204 10202 10200 10200 10199 10197 10197 10195 10194 10193 10192
10357 10356 10354 10353 10351 10349 10347 10346 10344 10342 10340 10338 10336 10334 10333 10331 10329 10326 10324 10321 10319 10316 10314 10312 10309 10307 10305 10302 10299 10297 10294 10291 10288 10286 10283 10281 10278 10275 10271 10267 10266 10263 10261 10257 10254 10251 10248 10245 10242 10240 10239 10237 10235 10234 10233 10233 10233 10232 10230 10228 10226 10223 10220 10218 10216 10214 10212 10210 10208 10207 10205 10203 10201 10199 10197 10196 10195 10194 10192 10192 10191 10190 10189 10187 10186 10185
10352 10351 10349 10347 10346 10344 10342 10340 10339 10337 10335 10333 10331 10329 10327 10325 10322 10321 10318 10316 10313 10311 10308 10306 10303 10301 10299 10296 10293 10291 10288 10285 10282 10280 10277 10275 10272 10269 10266 10262 10259 10257 10254 10251 10248 10245 10242 10239 10236 10234 10232 10230 10229 10229 10227 10227 10225 10225 10224 10222 10220 10219 10215 10213 10210 10209 10206 10204 10201 10199 10197 10195 10194 10192 10190 10189 10188 10187 10186 10185 10184 10184 10182 10180 10179 10178
10347 10345 10344 10342 10341 10339 10337 10335 10333 10331 10330 10328 10326 10324 10322 10319 10317 10314 10312 10309 10307 10304 10302 10300 10297 10295 10292 10290 10287 10284 10282 10279 10276 10274 10271 10269 10266 10263 10260 10256 10253 10250 10247 10245 10242 10239 10236 10233 10230 10228 10225 10224 10222 10222 10222 10221 10220 10219 10217 10216 10215 10213 10211 10209 10205 10203 10200 10197 10195 10192 10190 10189 10187 10185 10184 10182 10182 10180 10179 10179 10177 10177 10175 10174 10172 10171
10342 10340 10338 10337 10335 10334 10332 10329 10328 10326 10324 10322 10321 10318 10316 10314 10311 10309 10306 10304 10301 10299 10297 10294 10292 10289 10286 10284 10281 10278 10276 10273 10271 10267 10265 10262 10259 10257 10254 10251 10247 10244 10241 10239 10236 10234 10231 10228 10225 10223 10221 10219 10217 10215 10215 10215 10214 10213 10212 10210 10208 10207 10205 10204 10201 10198 10195 10192 10189 10186 10184 10182 10180 10179 10177 10177 10175 10174 10173 10172 10170 10169 10169 10167 10165 10164
10337 10335 10333 10331 10330 10328 10326 10324 10322 10321 10319 10317 10315 10312 10310 10308 10306 10302 10300 10297 10296 10293 10291 10288 10286 10283 10281 10278 10275 10272 10269 10267 10264 10261 10259 10256 10253 10250 10247 10244 10241 10238 10235 10232 10230 10227 10225 10223 10220 10217 10216 10214 10212 10210 10210 10209 10209 10207 10206 10204 10202 10200 10199 10198 10195 10193 10190 10187 10184 10181 10179 10176 10175 10173 10172 10171 10170 10169 10167 10165 10164 10163 10162 10160 10159 10157
10331 10329 10327 10326 10324 10322 10321 10319 10317 10316 10314 10312 10309 10307 10304 10302 10300 10297 10294 10292 10289 10287 10284 10282 10279 10277 10274 10271 10269 10266 10264 10261 10258 10255 10252 10249 10246 10243 10241 10237 10235 10232 10229 10226 10224 10221 10219 10217 10215 10212 10210 10209 10207 10205 10204 10204 10203 10202 10200 10198 10195 10194 10193 10192 10190 10188 10185 10182 10179 10176 10174 10172 10170 10168 10167 10165 10164 10162 10161 10160 10158 10157 10155 10154 10152 10151
10326 10324 10322 10321 10319 10317 10315 10314 10312 10310 10308 10306 10304 10301 10299 10297 10294 10291 10289 10286 10283 10281 10279 10276 10274 10271 10267 10264 10262 10259 10257 10254 10252 10249 10246 10242 10240 10237 10234 10231 10228 10225 10223 10220 10217 10215 10213 10212 10210 10207 10205 10204 10202 10200 10199 10198 10197 10196 10194 10192 10190 10188 10186 10185 10184 10182 10180 10177 10174 10172 10170 10167 10165 10164 10162 10160 10159 10157 10155 10154 10153 10151 10150 10148 10146 10145
10321 10319 10317 10315 10313 10312 10310 10308 10306 10304 10302 10300 10297 10295 10293 10291 10289 10286 10283 10280 10277 10275 10272 10270 10267 10265 10262 10259 10256 10253 10251 10248 10246 10243 10240 10237 10234 10231 10228 10225 10222 10220 10217 10215 10212 10209 10207 10205 10204 10202 10200 10199 10197 10195 10194 10192 10191 10190 10189 10187 10185 10183 10180 10179 10178 10176 10174 10172 10170 10168 10165 10164 10162 10160 10158 10156 10154 10153 10151 10150 10148 10146 10145 10143 10140 10139
10316 10314 10312 10310 10308 10306 10304 10302 10301 10299 10296 10294 10292 10289 10287 10285 10282 10280 10277 10274 10272 10269 10267 10264 10262 10258 10255 10252 10250 10247 10244 10242 10239 10237 10234 10231 10229 10225 10222 10220 10217 10214 10212 10210 10207 10205 10202 10199 10197 10196 10195 10194 10192 10190 10189 10187 10185 10184 10182 10181 10179 10177 10175 10174 10172 10170 10169 10167 10165 10164 10162 10160 10158 10156 10154 10152 10150 10149 10147 10145 10144 10142 10140 10138 10135 10134
10311 10309 10307 10304 10302 10301 10299 10297 10295 10292 10290 10288 10286 10283 10281 10279 10276 10274 10271 10269 10266 10262 10260 10258 10256 10252 10249 10246 10244 10241 10238 10235 10233 10230 10228 10225 10222 10220 10217 10215 10212 10209 10207 10204 10202 10200 10197 10195 10192 10190 10189 10188 10187 10185 10184 10182 10180 10179 10177 10175 10174 10172 10170 10169 10167 10165 10164 10162 10160 10159 10157 10156 10154 10152 10150 10148 10147 10145 10144 10142 10140 10138 10135 10133 10131 10129
10306 10304 10302 10299 10297 10295 10293 10291 10289 10287 10284 10282 10279 10277 10275 10272 10270 10267 10265 10262 10260 10257 10254 10251 10249 10246 10243 10241 10237 10235 10232 10229 10226 10224 10222 10219 10217 10214 10212 10209 10207 10204 10202 10199 10197 10194 10192 10190 10188 10186 10184 10182 10181 10180 10179 10178 10176 10174 10172 10170 10168 10167 10165 10164 10162 10160 10159 10157 10156 10154 10153 10152 10150 10148 10146 10144 10143 10141 10140 10138 10136 10134 10132 10129 10127 10125
10301 10299 10296 10294 10292 10290 10287 10286 10283 10281 10278 10276 10274 10271 10269 10267 10264 10261 10258 10256 10253 10251 10247 10245 10242 10240 10237 10234 10232 10229 10226 10223 10220 10218 10215 10214 10211 10209 10207 10204 10202 10199 10197 10194 10192 10189 10187 10184 10183 10181 10180 10178 10176 10175 10174 10172 10171 10169 10167 10165 10163 10161 10160 10159 10157 10155 10154 10152 10151 10150 10149 10147 10146 10144 10142 10140 10139 10137 10136 10134 10132 10130 10128 10125 10124 10121
10296 10293 10291 10289 10287 10284 10282 10280 10277 10275 10272 10270 10267 10265 10262 10261 10258 10255 10252 10249 10247 10244 10241 10239 10235 10233 10230 10227 10225 10222 10220 10217 10214 10212 10210 10208 10206 10204 10201 10199 10197 10194 10192 10189 10187 10184 10181 10179 10177 10176 10175 10174 10172 10170 10168 10167 10165 10164 10162 10160 10158 10157 10155 10154 10152 10151 10150 10148 10147 10146 10145 10144 10142 10140 10139 10137 10135 10134 10132 10131 10129 10127 10125 10122 10120 10118
10290 10287 10286 10283 10281 10279 10276 10274 10272 10269 10267 10264 10262 10259 10256 10254 10251 10249 10246 10243 10241 10237 10235 10232 10229 10227 10224 10221 10219 10216 10214 10211 10209 10207 10205 10203 10201 10199 10196 10194 10192 10189 10186 10184 10181 10179 10176 10174 10172 10170 10170 10169 10167 10165 10164 10162 10160 10159 10157 10155 10154 10152 10150 10149 10148 10147 10145 10144 10143 10142 10141 10140 10138 10137 10135 10133 10131 10130 10129 10127 10125 10124 10121 10119 10117 10115
10284 10282 10279 10277 10275 10272 10271 10268 10266 10264 10261 10258 10256 10253 10251 10247 10245 10242 10240 10237 10234 10231 10228 10225 10223 10220 10217 10215 10212 10210 10208 10205 10203 10201 10199 10198 10196 10194 10192 10189 10187 10184 10182 10179 10176 10174 10171 10169 10166 10164 10164 10164 10163 10162 10159 10157 10155 10154 10152 10150 10149 10147 10146 10145 10144 10142 10141 10140 10139 10138 10137 10135 10134 10133 10131 10129 10127 10126 10125 10124 10122 10120 10118 10115 10114 10111